HEMAVAN current weather conditions

sailwx.info

Wind from 130 at 9 knots

Air temperature -1.0° C
Visibility: greater than 5.4 NM
Dewpoint -3.0° C

Last reported at 2014-Nov-23 18:20 UTC.
Time now 2014-Nov-23 20:07 UTC

Location: N 65°48' E 015°05'.
View on Google Maps.

See reports from other nearby stations

  
Tides and Currents Weather Stations Pressure Air Temp Water Temp Dewpoint Dewpoint Depression Visibility Wind Speed Wind Dir Waves Ship Positions
date/time (UTC)wind fromknots sea level pressurealtimeterstation pressurevisibilityair tempwater tempwave heightnotes
2014-Nov-23 19:20 130 9 5.4-1.0
2014-Nov-23 18:50 140 11 5.4-1.0
2014-Nov-23 18:20 130 9 5.4-1.0
2014-Nov-23 17:50 140 12 5.4-1.0
2014-Nov-23 17:20 130 13 5.4-1.0
2014-Nov-23 16:50 120 13 5.4-1.0
2014-Nov-23 16:20 150 14 5.4-1.0
2014-Nov-23 15:50 190 4 5.4-2.0
2014-Nov-23 15:20 170 8 5.4-2.0
2014-Nov-23 14:50 140 13 5.4-2.0
2014-Nov-23 14:20 150 13 5.4-3.0
2014-Nov-23 13:50 160 8 5.4-2.0
2014-Nov-23 13:20 140 11 5.4-2.0
2014-Nov-23 12:50 170 7 5.4-2.0
2014-Nov-23 12:20 160 9 5.4-2.0
2014-Nov-23 11:50 160 9 5.4-2.0
2014-Nov-23 11:20 150 7 5.4-2.0
2014-Nov-23 10:50 150 11 5.4-2.0
2014-Nov-23 10:20 170 10 5.4-2.0
2014-Nov-23 09:50 150 9 5.4-2.0
2014-Nov-23 09:20 160 13 5.4-2.0
2014-Nov-23 08:50 160 13 5.4-2.0
2014-Nov-23 08:20 150 14 5.4-2.0
2014-Nov-23 07:50 170 9 5.4-2.0
2014-Nov-23 07:20 170 13 5.4-2.0
2014-Nov-23 06:50 160 13 5.4-1.0
2014-Nov-23 06:20 160 10 5.4-2.0
2014-Nov-23 05:50 160 9 5.4-2.0
2014-Nov-23 05:20 100 5 5.4-2.0
2014-Nov-23 04:50 5.4-1.0
2014-Nov-23 04:20 150 7 5.4-1.0
2014-Nov-23 03:50 150 8 5.4-1.0
2014-Nov-23 03:20 120 5 4.9-1.0 Mist.
2014-Nov-23 02:50 140 5 5.4-1.0
2014-Nov-23 02:20 160 3 5.4-1.0
2014-Nov-23 01:50 130 5 5.4-1.0
2014-Nov-23 01:20 150 4 5.4-1.0
2014-Nov-23 00:50 160 4 5.4-1.0
2014-Nov-23 00:20 160 7 5.4-1.0
2014-Nov-22 23:50 160 6 5.4-1.0
2014-Nov-22 23:20 160 7 5.4-1.0
2014-Nov-22 22:50 160 5 5.4-1.0
2014-Nov-22 22:20 150 4 5.4-1.0
2014-Nov-22 21:50 160 4 5.4-1.0
2014-Nov-22 21:20 160 5 5.4-1.0
2014-Nov-22 20:50 150 4 5.4-1.0
2014-Nov-22 20:20 150 5 4.9-1.0
2014-Nov-22 19:50 150 4 5.4-0.0
2014-Nov-22 19:20 5.4-0.0
2014-Nov-22 18:50 330 1 4.9-2.0
2014-Nov-22 18:20 5.4-2.0 Mist.
2014-Nov-22 17:50 5.4-1.0
2014-Nov-22 17:20 3.8-1.0 Mist.
2014-Nov-22 16:50 2.4-1.0
2014-Nov-22 16:20 2.7-1.0
2014-Nov-22 15:50 0.6-1.0
2014-Nov-22 15:20 330 2 0.6-1.0 Mist.
2014-Nov-22 14:50 5.4-1.0
2014-Nov-22 14:20 5.4-1.0
2014-Nov-22 13:50 2.7-1.0
2014-Nov-22 13:20 5.4-1.0 Mist.
2014-Nov-22 12:50 4.9-1.0
2014-Nov-22 12:20 5.4-0.0
2014-Nov-22 11:50 5.4-0.0
2014-Nov-22 11:20 5.4-0.0
2014-Nov-22 10:50 110 2 5.4-0.0
2014-Nov-22 10:20 130 2 5.4-0.0
2014-Nov-22 09:50 120 1 5.4-0.0
2014-Nov-22 09:20 150 2 5.4-0.0 Snow grains.
2014-Nov-22 08:50 140 1 5.4-1.0
2014-Nov-22 08:20 140 2 5.4-1.0
2014-Nov-22 07:50 -1.0
2014-Nov-22 07:20 100 2 5.4-0.0
2014-Nov-22 06:50 130 2 5.4-1.0
2014-Nov-22 06:20 170 3 5.4-0.0
2014-Nov-22 05:50 5.4-1.0
2014-Nov-22 05:20 5.4-0.0
2014-Nov-22 04:50 5.4-1.0
2014-Nov-22 04:20 130 1 5.4-1.0
2014-Nov-22 03:50 140 2 5.4-1.0
2014-Nov-22 03:20 5.4-0.0 Freezing precipitation.
2014-Nov-22 02:50 5.4-1.0
2014-Nov-22 02:20 5.4-1.0 Light snow.
2014-Nov-22 01:50 5.4-1.0
2014-Nov-22 01:20 5.4-1.0 Freezing precipitation.
2014-Nov-22 00:50 4.9-1.0
2014-Nov-22 00:20 5.4-1.0
2014-Nov-21 23:50 5.4-1.0
2014-Nov-21 23:20 5.4-1.0
2014-Nov-21 22:50 5.4-1.0
2014-Nov-21 22:20 280 2 5.4-1.0
2014-Nov-21 21:50 5.4-2.0
2014-Nov-21 21:20 5.4-2.0
2014-Nov-21 20:50 060 2 5.4-2.0
2014-Nov-21 20:20 5.4-2.0